LEMUR-2-ETHANOAKES (46298 NORAD) Tracking and Keplerian Element Data

This shows tracking and keplerian element data for the satellite.

Feedback or suggestion? Click here.




ElementValue
Catalog46298
NameLEMUR-2-ETHANOAKES
Epoch Orbit1346
Epoch Day336.89788328
Epoch Year2020
RAAN48.4014
Inclination97.5111
Eccentricity0.0001509
Argument of Perigee56.6309
Mean Anonmoly303.5065
Mean Motion15.10863859
Decay Rate4.777E-05
L11 46298U 20061AC 20336.89788328 .00004777 00000-0 29089-3 0 9991
L22 46298 97.5111 48.4014 0001509 56.6309 303.5065 15.10863859 13462

Live tracking and technical data element details for LEMUR-2-ETHANOAKES (NORAD 46298). LEMUR-2-ETHANOAKES can be tracked NOW for your location showing map with azimuth and elevation plus other details from your city location.

Track the satellite on the map from your city or location and see movement details for azimuth, elevation, latitude, longitude, range, height, and movement on the map or in text.







IsCatalogInMostPopularTable: catalog: 46298, numindb: 15
Update: records affected: 1



GetName: 46298 LEMUR-2-ETHANOAKES

Hit Count: updated at: Wed, 02 Dec 2020 19:14:49 GMT